Flag for Canada Weather past 2 weeks in Greater Sudbury, Ontario, Canada

Now
16 °F

Clear.


Feels Like: 16 °F
Forecast: -5 / 20 °F
Wind: 2 mph from West

Location: Sudbury

Current Time: Mar 2, 2015 at 7:50:48 PM

Latest Report: Mar 2, 2015 at 7:00 PM


Visibility: 15 mi

Pressure: 30.34 "Hg

Humidity: 37%

Dew point: -6 °F

Location of Greater SudburyLocation

Historic Weather in Greater Sudbury — Graph

°F

Greater Sudbury temperature yesterday

Maximum temperature yesterday: 19 °F (at 1:00 PM)
Minimum temperature yesterday: 5 °F (at 4:00 AM)
Average temperature yesterday: 12 °F

Past Weeks' High & Low Weather Summary

 TemperatureHumidityPressure
High21 °F (Feb 28, 3:00 PM)93% (Mar 1, 11:00 PM)30.63 "Hg (Mar 1, 11:00 PM)
Low-24 °F (Feb 20, 6:00 AM)35% (Mar 2, 5:00 PM)29.39 "Hg (Feb 24, 5:00 PM)
Average0 °F70%30.13 "Hg
* Reported Feb 15 6:00 PM — Mar 2 6:00 PM, Greater Sudbury, Weather by CustomWeather, © 2015

Note: Actual official high and low records may vary slightly from our data, if they occured in-between our weather recording intervals... More about our weather records

Advertising

Greater Sudbury weather history for previous 24 hours

 ConditionsComfort  
Time TempWeatherWind HumidityBarometerVisibility
6:00 PM
Mon, Mar 2
18 °FSunny.6 mph38%30.32 "Hg20 mi
5:00 PM19 °FSunny.10 mph35%30.32 "Hg20 mi
4:00 PM19 °FSunny.12 mph38%30.30 "Hg20 mi
3:00 PM19 °FPassing clouds.13 mph38%30.28 "Hg20 mi
2:00 PM19 °FScattered clouds.13 mph42%30.27 "Hg20 mi
1:00 PM18 °FPartly sunny.14 mph53%30.26 "Hg20 mi
12:00 PM18 °FPartly sunny.15 mph49%30.23 "Hg20 mi
11:00 AM16 °FPartly sunny.17 mph57%30.21 "Hg15 mi
10:00 AM16 °FPartly sunny.15 mph62%30.19 "Hg15 mi
9:00 AM12 °FPartly sunny.9 mph85%30.17 "Hg15 mi
8:00 AM9 °FPassing clouds.9 mph85%30.13 "Hg15 mi
7:00 AM9 °FPassing clouds.9 mph92%30.08 "Hg15 mi
6:00 AM10 °FPassing clouds.7 mph85%30.05 "Hg15 mi
5:00 AM12 °FPassing clouds.6 mph85%30.03 "Hg10 mi
4:00 AM14 °FPassing clouds.6 mph85%30.01 "Hg10 mi
3:00 AM16 °FLight snow. Passing clouds.8 mph86%30.01 "Hg10 mi
2:00 AM16 °FLight snow. Overcast.6 mph93%30.02 "Hg5 mi
1:00 AM16 °FLight snow. Overcast.7 mph93%30.03 "Hg10 mi
12:00 AM16 °FLight snow. Overcast.10 mph93%30.05 "Hg6 mi
11:00 PM
Sun, Mar 1
16 °FLight snow. Overcast.10 mph93%30.06 "Hg10 mi
10:00 PM16 °FMostly cloudy.10 mph86%30.07 "Hg15 mi
9:00 PM14 °FPassing clouds.8 mph85%30.09 "Hg15 mi
8:00 PM16 °FPassing clouds.8 mph79%30.10 "Hg15 mi
7:00 PM18 °FLight snow. Mostly cloudy.9 mph73%30.12 "Hg15 mi
Weather by CustomWeather, © 2015

See weather overviewHow to use our weather pages